Content
SEND FEEDBACK

Daily
Averages
Monthly
Summary
United States of America

CHICAGO, ILLINOIS


Home > North America > United States > Illinois
Elevation: 674 feet     Latitude: 41 59N     Longitude: 087 54W

WEATHER
 
SELECT A DAY
Number of Records: 198,661;   Date Range: 7/8/95 - 11/19/14
 
SHARE

PRINT THIS DATA

[ ← Previous Day ]
WEATHER ALMANAC - OCTOBER 22, 2013
[ Next Day → ]
[ °C ]   °F
Weather ElementAverageHighLow
Temperature38.5 °F44.1 °F (11:52 am)30.9 °F (4:52 am)
Dewpoint28.5 °F34 °F (3:52 pm)23 °F (6:52 am)
Humidity68.1 %85 % (11:52 pm)47 % (11:52 am)
Barometer29.97 in30.01 in (7:52 am)29.93 in (4:32 pm)
Wind Speed4.6 mph8.1 mph (9:52 am)
Weather ElementAverage
Visibility9.9 mi
Wind DirectionSW (222.4 °)

Weather ElementTotal
Precipitation---
Heating Degree Days27.5 (Base 65)
Averaged from 25 records on October 22, 2013
WEATHER CONDITIONS BREAKOUT
WIND DIRECTION BREAKOUT
WEATHER BY HOUR - OCTOBER 22, 2013
[ °C ]   °F
Local TimeTemperatureDewpointHumidityBarometerVisibilityWind DirectionWind SpeedGust SpeedPrecipitationEventsConditions
1:52 AM34.0 °F25.0 °F70 %30.00 in10.0 miWest (260°)4.6 mphClear
2:52 AM33.1 °F25.0 °F72 %30.00 in10.0 miWest (280°)4.6 mphClear
3:52 AM33.1 °F25.0 °F72 %30.00 in10.0 miWest (280°)4.6 mphClear
4:52 AM30.9 °F24.1 °F76 %30.00 in10.0 miWNW (290°)4.6 mphClear
5:52 AM32.0 °F24.1 °F73 %30.00 in10.0 miWest (260°)4.6 mphClear
6:52 AM32.0 °F23.0 °F69 %30.00 in10.0 miWest (260°)3.5 mphClear
7:52 AM33.1 °F24.1 °F70 %30.01 in10.0 miCalmScattered Clouds
8:52 AM36.0 °F25.0 °F64 %30.01 in10.0 miWest (270°)4.6 mphClear
9:52 AM41.0 °F25.0 °F53 %30.00 in10.0 miWNW (290°)8.1 mphPartly Cloudy
10:52 AM43.0 °F25.0 °F49 %29.99 in10.0 miNW (310°)6.9 mphMostly Cloudy
11:52 AM44.1 °F25.0 °F47 %29.99 in10.0 miWest (260°)5.8 mphMostly Cloudy
12:52 PM43.0 °F24.1 °F47 %29.97 in10.0 miWSW (250°)8.1 mphOvercast
1:52 PM43.0 °F26.1 °F51 %29.95 in10.0 miSW (230°)6.9 mphOvercast
2:52 PM42.1 °F30.9 °F65 %29.95 in10.0 miSW (230°)6.9 mphOvercast
3:52 PM42.1 °F34.0 °F73 %29.95 in10.0 miSSW (210°)6.9 mphOvercast
4:32 PM42.8 °F33.8 °F70 %29.93 in10.0 miSouth (180°)3.5 mphOvercast
4:52 PM42.1 °F32.0 °F67 %29.95 in10.0 miSSW (210°)6.9 mphOvercast
5:32 PM42.8 °F33.8 °F70 %29.94 in10.0 miSSW (200°)5.8 mphOvercast
5:52 PM41.0 °F33.1 °F73 %29.95 in10.0 miSSW (200°)4.6 mphOvercast
6:52 PM41.0 °F33.1 °F73 %29.96 in10.0 miSW (220°)3.5 mphOvercast
7:52 PM41.0 °F34.0 °F76 %29.96 in10.0 miCalmOvercast
8:52 PM39.9 °F33.1 °F77 %29.96 in10.0 miWest (270°)3.5 mphOvercast
9:52 PM37.9 °F32.0 °F79 %29.96 in10.0 miCalmClear
10:52 PM37.0 °F32.0 °F82 %29.95 in9.0 miWNW (300°)3.5 mphClear
11:52 PM35.1 °F30.9 °F85 %29.94 in8.0 miWNW (300°)3.5 mphClear
Hourly data recorded from KPWK, located miles away from Chicago, Illinois







STORIES FROM OUR PARTNERS